sat.trackr.live / text

‹ back to catalog

SHIJIAN-15 (SJ-15)

NORAD 39210 · 2013-037C

PAYLOAD ACTIVE UNKNOWN

§ Identity

Operator
Country
PRC
Launch date
2013-07-19
Launch site
TAISC
Launch vehicle
Mass (kg)
RCS (m²)
3.33

External: N2YO · Heavens-Above · Gunter

§ Orbital elements

Epoch: 2026-09-20T05:18:32.776416Z

Period
97.85 min
Inclination
98.1100°
Eccentricity
0.0005659
Mean motion
14.71599240 rev/d
Perigee alt
652.0 km
Apogee alt
659.9 km
Semi-major
7,034.1 km
B*
6.0398e-5
RAAN
265.8538°
Arg perigee
192.8158°
Mean anomaly
167.2905°
Rev number
70,830

§ Raw data

SHIJIAN-15 (SJ-15)1 39210U 13037C   26263.22121269  .00000325  00000+0  60398-4 0  99922 39210  98.1100 265.8538 0005659 192.8158 167.2905 14.71599240708302

JSON: /api/v1/satellites/39210 · /tle

For live sub-satellite position, see the globe view (requires WebGL).

§ Visibility from observer

Set your observer location to see the next 7 days of passes ≥ 10°. The values pass through the URL so the page stays shareable.

No JS? Fill the form by hand. The geolocation button needs JavaScript.